Time,TemperatureF,DewpointF,PressureIn,WindDirection,WindDirectionDegrees,WindSpeedMPH,WindSpeedGustMPH,Humidity,HourlyPrecipIn,Conditions,Clouds,dailyrainin,SolarRadiationWatts/m^2,SoftwareType,DateUTC
2013-05-23 00:00:00,62.3,45.4,29.88,North,355,24.0,30.0,54,0.00,,,0.00,0,Wunderground v.1.15,2013-05-22 22:00:00,
2013-05-23 00:05:00,62.5,45.1,29.88,NNW,340,26.0,33.0,53,0.00,,,0.00,0,Wunderground v.1.15,2013-05-22 22:05:00,
2013-05-23 00:10:00,62.6,45.2,29.88,NNW,344,27.0,27.0,53,0.00,,,0.00,0,Wunderground v.1.15,2013-05-22 22:10:00,
2013-05-23 00:15:00,62.4,45.0,29.88,North,355,25.0,30.0,53,0.00,,,0.00,0,Wunderground v.1.15,2013-05-22 22:15:00,
2013-05-23 00:20:00,62.4,44.5,29.89,North,11,23.0,23.0,52,0.00,,,0.00,0,Wunderground v.1.15,2013-05-22 22:20:00,
2013-05-23 00:25:00,62.4,44.5,29.88,NNE,17,23.0,25.0,52,0.00,,,0.00,0,Wunderground v.1.15,2013-05-22 22:25:00,
2013-05-23 00:35:00,62.3,44.4,29.88,NNE,14,25.0,34.0,52,0.00,,,0.00,0,Wunderground v.1.15,2013-05-22 22:35:00,
2013-05-23 00:40:00,62.2,44.9,29.88,NNW,347,24.0,24.0,53,0.00,,,0.00,0,Wunderground v.1.15,2013-05-22 22:40:00,
2013-05-23 00:50:00,62.4,44.5,29.88,NNE,24,23.0,23.0,52,0.00,,,0.00,0,Wunderground v.1.15,2013-05-22 22:50:00,
2013-05-23 00:55:00,62.3,44.9,29.88,North,9,22.0,25.0,53,0.00,,,0.00,0,Wunderground v.1.15,2013-05-22 22:55:00,
2013-05-23 01:05:00,62.1,45.2,29.88,NNW,327,20.0,21.0,54,0.00,,,0.00,0,Wunderground v.1.15,2013-05-22 23:05:00,
2013-05-23 01:10:00,62.0,45.2,29.88,North,351,20.0,20.0,54,0.00,,,0.00,0,Wunderground v.1.15,2013-05-22 23:10:00,
2013-05-23 01:20:00,61.8,45.0,29.88,NNW,344,17.0,21.0,54,0.00,,,0.00,0,Wunderground v.1.15,2013-05-22 23:20:00,
2013-05-23 01:30:00,61.9,45.1,29.88,North,350,19.0,21.0,54,0.00,,,0.00,0,Wunderground v.1.15,2013-05-22 23:30:00,
2013-05-23 01:40:00,61.8,45.0,29.88,NNE,25,20.0,20.0,54,0.00,,,0.00,0,Wunderground v.1.15,2013-05-22 23:40:00,
2013-05-23 01:50:00,61.5,45.2,29.87,North,355,19.0,19.0,55,0.00,,,0.00,0,Wunderground v.1.15,2013-05-22 23:50:00,
2013-05-23 02:01:00,61.4,45.1,29.87,North,360,20.0,26.0,55,0.00,,,0.00,0,Wunderground v.1.15,2013-05-23 00:01:00,
2013-05-23 02:10:00,61.2,45.4,29.87,North,360,21.0,21.0,56,0.00,,,0.00,0,Wunderground v.1.15,2013-05-23 00:10:00,
2013-05-23 02:15:00,61.4,45.1,29.87,NNW,333,19.0,21.0,55,0.00,,,0.00,0,Wunderground v.1.15,2013-05-23 00:15:00,
2013-05-23 02:25:00,61.8,45.0,29.87,NNW,344,20.0,24.0,54,0.00,,,0.00,0,Wunderground v.1.15,2013-05-23 00:25:00,
2013-05-23 02:35:00,61.7,44.4,29.87,NNW,342,17.0,26.0,53,0.00,,,0.00,0,Wunderground v.1.15,2013-05-23 00:35:00,
2013-05-23 02:45:00,62.0,43.7,29.87,NNW,340,19.0,21.0,51,0.00,,,0.00,0,Wunderground v.1.15,2013-05-23 00:45:00,
2013-05-23 02:55:00,62.1,43.7,29.87,NNW,341,19.0,21.0,51,0.00,,,0.00,0,Wunderground v.1.15,2013-05-23 00:55:00,
2013-05-23 03:01:00,61.8,43.5,29.87,North,360,16.0,16.0,51,0.00,,,0.00,0,Wunderground v.1.15,2013-05-23 01:01:00,
2013-05-23 03:10:00,61.9,43.0,29.87,NNW,336,17.0,17.0,50,0.00,,,0.00,0,Wunderground v.1.15,2013-05-23 01:10:00,
2013-05-23 03:20:00,61.9,43.6,29.87,NNW,327,15.0,15.0,51,0.00,,,0.00,0,Wunderground v.1.15,2013-05-23 01:20:00,
2013-05-23 03:30:00,61.7,42.9,29.86,NW,324,12.0,12.0,50,0.00,,,0.00,0,Wunderground v.1.15,2013-05-23 01:30:00,
2013-05-23 03:40:00,61.5,43.7,29.87,North,355,10.0,16.0,52,0.00,,,0.00,0,Wunderground v.1.15,2013-05-23 01:40:00,
2013-05-23 03:45:00,61.4,43.6,29.87,NNW,341,10.0,16.0,52,0.00,,,0.00,0,Wunderground v.1.15,2013-05-23 01:45:00,
2013-05-23 03:55:00,62.0,42.6,29.87,North,350,11.0,16.0,49,0.00,,,0.00,0,Wunderground v.1.15,2013-05-23 01:55:00,
2013-05-23 04:05:00,61.7,42.9,29.87,North,350,11.0,14.0,50,0.00,,,0.00,0,Wunderground v.1.15,2013-05-23 02:05:00,
2013-05-23 04:10:00,61.8,41.9,29.87,NNW,329,10.0,20.0,48,0.00,,,0.00,0,Wunderground v.1.15,2013-05-23 02:10:00,
2013-05-23 04:20:00,62.1,42.2,29.86,NNW,345,15.0,15.0,48,0.00,,,0.00,0,Wunderground v.1.15,2013-05-23 02:20:00,
2013-05-23 04:25:00,61.8,42.4,29.86,NNW,337,15.0,21.0,49,0.00,,,0.00,0,Wunderground v.1.15,2013-05-23 02:25:00,
2013-05-23 04:30:00,61.8,43.0,29.85,NNW,344,16.0,16.0,50,0.00,,,0.00,0,Wunderground v.1.15,2013-05-23 02:30:00,
2013-05-23 04:40:00,61.4,43.6,29.84,NNW,347,19.0,19.0,52,0.00,,,0.00,0,Wunderground v.1.15,2013-05-23 02:40:00,
2013-05-23 04:50:00,61.0,44.2,29.84,NNW,342,17.0,18.0,54,0.00,,,0.00,0,Wunderground v.1.15,2013-05-23 02:50:00,
2013-05-23 04:55:00,60.9,44.6,29.84,NNW,334,16.0,18.0,55,0.00,,,0.00,0,Wunderground v.1.15,2013-05-23 02:55:00,
2013-05-23 05:00:00,60.9,44.6,29.84,NNW,342,17.0,17.0,55,0.00,,,0.00,0,Wunderground v.1.15,2013-05-23 03:00:00,
2013-05-23 05:10:00,60.7,44.9,29.85,NNW,346,18.0,18.0,56,0.00,,,0.00,0,Wunderground v.1.15,2013-05-23 03:10:00,
2013-05-23 05:20:00,60.6,45.3,29.85,NNW,342,20.0,20.0,57,0.00,,,0.00,0,Wunderground v.1.15,2013-05-23 03:20:00,
2013-05-23 05:30:00,60.5,45.2,29.85,NNW,341,20.0,20.0,57,0.00,,,0.00,0,Wunderground v.1.15,2013-05-23 03:30:00,
2013-05-23 05:35:00,60.5,45.2,29.85,North,5,19.0,23.0,57,0.00,,,0.00,0,Wunderground v.1.15,2013-05-23 03:35:00,
2013-05-23 05:45:00,60.2,45.4,29.85,North,5,16.0,18.0,58,0.00,,,0.00,0,Wunderground v.1.15,2013-05-23 03:45:00,
2013-05-23 05:55:00,59.9,45.5,29.85,North,11,13.0,15.0,59,0.00,,,0.00,0,Wunderground v.1.15,2013-05-23 03:55:00,
2013-05-23 06:05:00,59.8,45.4,29.85,NNW,348,12.0,16.0,59,0.00,,,0.00,0,Wunderground v.1.15,2013-05-23 04:05:00,
2013-05-23 06:10:00,59.8,45.4,29.84,North,5,14.0,14.0,59,0.00,,,0.00,0,Wunderground v.1.15,2013-05-23 04:10:00,
2013-05-23 06:20:00,59.8,45.4,29.84,North,351,15.0,20.0,59,0.00,,,0.00,5,Wunderground v.1.15,2013-05-23 04:20:00,
2013-05-23 06:25:00,60.1,45.3,29.84,North,360,18.0,20.0,58,0.00,,,0.00,7,Wunderground v.1.15,2013-05-23 04:25:00,
2013-05-23 06:30:00,59.7,45.3,29.84,North,355,17.0,17.0,59,0.00,,,0.00,9,Wunderground v.1.15,2013-05-23 04:30:00,
2013-05-23 06:40:00,59.6,45.2,29.84,North,355,13.0,13.0,59,0.00,,,0.00,12,Wunderground v.1.15,2013-05-23 04:40:00,
2013-05-23 06:45:00,60.0,45.6,29.85,North,355,12.0,13.0,59,0.00,,,0.00,16,Wunderground v.1.15,2013-05-23 04:45:00,
2013-05-23 06:50:00,59.9,45.5,29.85,North,5,9.0,9.0,59,0.00,,,0.00,18,Wunderground v.1.15,2013-05-23 04:50:00,
2013-05-23 06:55:00,59.8,45.4,29.86,North,360,6.0,9.0,59,0.00,,,0.00,21,Wunderground v.1.15,2013-05-23 04:55:00,
2013-05-23 07:05:00,59.9,45.5,29.85,North,360,9.0,10.0,59,0.00,,,0.00,35,Wunderground v.1.15,2013-05-23 05:05:00,
2013-05-23 07:10:00,60.4,45.1,29.86,North,355,10.0,10.0,57,0.00,,,0.00,46,Wunderground v.1.15,2013-05-23 05:10:00,
2013-05-23 07:20:00,60.5,45.6,29.86,NNW,342,5.0,5.0,58,0.00,,,0.00,70,Wunderground v.1.15,2013-05-23 05:20:00,
2013-05-23 07:30:00,60.7,45.8,29.86,NNW,341,6.0,8.0,58,0.00,,,0.00,98,Wunderground v.1.15,2013-05-23 05:30:00,
2013-05-23 07:35:00,60.8,45.5,29.86,NNW,333,7.0,13.0,57,0.00,,,0.00,114,Wunderground v.1.15,2013-05-23 05:35:00,
2013-05-23 07:40:00,60.9,45.6,29.86,NW,325,9.0,11.0,57,0.00,,,0.00,132,Wunderground v.1.15,2013-05-23 05:40:00,
2013-05-23 07:45:00,61.1,45.7,29.86,NNW,346,9.0,15.0,57,0.00,,,0.00,149,Wunderground v.1.15,2013-05-23 05:45:00,
2013-05-23 07:50:00,61.3,45.9,29.86,NNW,327,11.0,11.0,57,0.00,,,0.00,169,Wunderground v.1.15,2013-05-23 05:50:00,
2013-05-23 08:00:00,59.3,46.7,29.87,WNW,296,4.0,10.0,63,0.00,,,0.00,204,Wunderground v.1.15,2013-05-23 06:00:00,
2013-05-23 08:10:00,58.8,46.2,29.87,WNW,301,5.0,5.0,63,0.00,,,0.00,234,Wunderground v.1.15,2013-05-23 06:10:00,
2013-05-23 08:20:00,59.1,46.9,29.87,NW,311,3.0,3.0,64,0.00,,,0.00,264,Wunderground v.1.15,2013-05-23 06:20:00,
2013-05-23 08:35:00,60.0,47.8,29.87,NW,316,1.0,3.0,64,0.00,,,0.00,308,Wunderground v.1.15,2013-05-23 06:35:00,
2013-05-23 08:40:00,60.0,47.8,29.87,NW,313,1.0,11.0,64,0.00,,,0.00,325,Wunderground v.1.15,2013-05-23 06:40:00,
2013-05-23 08:45:00,60.1,47.9,29.87,WNW,302,4.0,11.0,64,0.00,,,0.00,339,Wunderground v.1.15,2013-05-23 06:45:00,
2013-05-23 08:55:00,60.7,48.4,29.87,WNW,301,4.0,5.0,64,0.00,,,0.00,371,Wunderground v.1.15,2013-05-23 06:55:00,
2013-05-23 09:05:00,60.9,48.6,29.87,WNW,286,2.0,4.0,64,0.00,,,0.00,399,Wunderground v.1.15,2013-05-23 07:05:00,
2013-05-23 09:15:00,61.7,48.5,29.88,WNW,294,2.0,3.0,62,0.00,,,0.00,432,Wunderground v.1.15,2013-05-23 07:15:00,
2013-05-23 09:20:00,62.0,48.0,29.88,WNW,294,2.0,2.0,60,0.00,,,0.00,445,Wunderground v.1.15,2013-05-23 07:20:00,
2013-05-23 09:25:00,62.5,48.9,29.88,WNW,294,1.0,2.0,61,0.00,,,0.00,461,Wunderground v.1.15,2013-05-23 07:25:00,
2013-05-23 09:35:00,63.0,48.9,29.88,WNW,302,1.0,1.0,60,0.00,,,0.00,490,Wunderground v.1.15,2013-05-23 07:35:00,
2013-05-23 09:40:00,63.0,49.3,29.88,WNW,300,2.0,2.0,61,0.00,,,0.00,473,Wunderground v.1.15,2013-05-23 07:40:00,
2013-05-23 09:45:00,63.1,48.5,29.88,WNW,284,3.0,6.0,59,0.00,,,0.00,524,Wunderground v.1.15,2013-05-23 07:45:00,
2013-05-23 09:50:00,63.3,48.7,29.88,West,268,4.0,7.0,59,0.00,,,0.00,536,Wunderground v.1.15,2013-05-23 07:50:00,
2013-05-23 10:00:00,63.7,48.6,29.88,West,277,3.0,4.0,58,0.00,,,0.00,561,Wunderground v.1.15,2013-05-23 08:00:00,
2013-05-23 10:05:00,63.9,48.8,29.88,West,281,3.0,4.0,58,0.00,,,0.00,575,Wunderground v.1.15,2013-05-23 08:05:00,
2013-05-23 10:15:00,64.5,48.9,29.88,West,277,3.0,3.0,57,0.00,,,0.00,601,Wunderground v.1.15,2013-05-23 08:15:00,
2013-05-23 10:20:00,64.8,48.7,29.88,West,261,3.0,3.0,56,0.00,,,0.00,615,Wunderground v.1.15,2013-05-23 08:20:00,
2013-05-23 10:25:00,65.0,49.4,29.88,WNW,288,4.0,4.0,57,0.00,,,0.00,631,Wunderground v.1.15,2013-05-23 08:25:00,
2013-05-23 10:30:00,65.3,49.2,29.88,WNW,287,3.0,5.0,56,0.00,,,0.00,645,Wunderground v.1.15,2013-05-23 08:30:00,
2013-05-23 10:40:00,65.8,49.2,29.88,WSW,245,4.0,4.0,55,0.00,,,0.00,666,Wunderground v.1.15,2013-05-23 08:40:00,
2013-05-23 10:45:00,65.9,48.8,29.88,WSW,250,4.0,4.0,54,0.00,,,0.00,680,Wunderground v.1.15,2013-05-23 08:45:00,
2013-05-23 10:50:00,65.9,48.8,29.88,WSW,252,4.0,4.0,54,0.00,,,0.00,693,Wunderground v.1.15,2013-05-23 08:50:00,
2013-05-23 11:00:00,66.5,48.3,29.88,West,260,2.0,6.0,52,0.00,,,0.00,714,Wunderground v.1.15,2013-05-23 09:00:00,
2013-05-23 11:10:00,66.9,47.6,29.87,WNW,288,3.0,8.0,50,0.00,,,0.00,740,Wunderground v.1.15,2013-05-23 09:10:00,
2013-05-23 11:15:00,66.8,47.6,29.88,West,281,3.0,8.0,50,0.00,,,0.00,751,Wunderground v.1.15,2013-05-23 09:15:00,
2013-05-23 11:20:00,67.1,48.4,29.87,West,261,2.0,3.0,51,0.00,,,0.00,765,Wunderground v.1.15,2013-05-23 09:20:00,
2013-05-23 11:25:00,67.5,47.7,29.87,WSW,250,1.0,3.0,49,0.00,,,0.00,779,Wunderground v.1.15,2013-05-23 09:25:00,
2013-05-23 11:30:00,67.6,47.8,29.88,WSW,250,1.0,1.0,49,0.00,,,0.00,791,Wunderground v.1.15,2013-05-23 09:30:00,
2013-05-23 11:40:00,67.9,47.5,29.87,West,261,1.0,5.0,48,0.00,,,0.00,819,Wunderground v.1.15,2013-05-23 09:40:00,
2013-05-23 11:50:00,68.1,45.4,29.87,NE,34,4.0,4.0,44,0.00,,,0.00,830,Wunderground v.1.15,2013-05-23 09:50:00,
2013-05-23 11:55:00,68.1,44.7,29.87,NNE,17,5.0,5.0,43,0.00,,,0.00,835,Wunderground v.1.15,2013-05-23 09:55:00,
2013-05-23 12:05:00,68.7,47.1,29.87,NE,46,1.0,6.0,46,0.00,,,0.00,865,Wunderground v.1.15,2013-05-23 10:05:00,
2013-05-23 12:15:00,69.5,47.2,29.87,East,89,1.0,1.0,45,0.00,,,0.00,895,Wunderground v.1.15,2013-05-23 10:15:00,
2013-05-23 12:20:00,69.4,46.5,29.87,WSW,244,1.0,1.0,44,0.00,,,0.00,905,Wunderground v.1.15,2013-05-23 10:20:00,
2013-05-23 12:25:00,69.2,46.4,29.86,WSW,251,1.0,1.0,44,0.00,,,0.00,946,Wunderground v.1.15,2013-05-23 10:25:00,
2013-05-23 12:30:00,69.1,46.9,29.86,WSW,252,1.0,3.0,45,0.00,,,0.00,227,Wunderground v.1.15,2013-05-23 10:30:00,
2013-05-23 12:40:00,69.2,47.5,29.86,SSW,200,1.0,2.0,46,0.00,,,0.00,1060,Wunderground v.1.15,2013-05-23 10:40:00,
2013-05-23 12:50:00,69.3,47.6,29.86,SSW,206,4.0,4.0,46,0.00,,,0.00,276,Wunderground v.1.15,2013-05-23 10:50:00,
2013-05-23 12:55:00,68.9,47.3,29.86,SW,220,4.0,4.0,46,0.00,,,0.00,1051,Wunderground v.1.15,2013-05-23 10:55:00,
2013-05-23 13:00:00,69.1,48.6,29.86,SW,218,3.0,3.0,48,0.00,,,0.00,1028,Wunderground v.1.15,2013-05-23 11:00:00,
2013-05-23 13:10:00,70.0,47.7,29.86,SSE,157,3.0,3.0,45,0.00,,,0.00,355,Wunderground v.1.15,2013-05-23 11:10:00,
2013-05-23 13:15:00,69.8,48.7,29.86,SSE,164,5.0,5.0,47,0.00,,,0.00,373,Wunderground v.1.15,2013-05-23 11:15:00,
2013-05-23 13:25:00,69.9,49.9,29.86,ESE,113,8.0,12.0,49,0.00,,,0.00,1078,Wunderground v.1.15,2013-05-23 11:25:00,
2013-05-23 13:35:00,70.4,49.8,29.86,SE,141,8.0,11.0,48,0.00,,,0.00,1097,Wunderground v.1.15,2013-05-23 11:35:00,
2013-05-23 13:40:00,70.0,50.0,29.86,ESE,117,10.0,10.0,49,0.00,,,0.00,1160,Wunderground v.1.15,2013-05-23 11:40:00,
2013-05-23 13:50:00,69.8,49.2,29.86,ESE,119,9.0,9.0,48,0.00,,,0.00,1100,Wunderground v.1.15,2013-05-23 11:50:00,
2013-05-23 14:00:00,69.9,50.4,29.85,ESE,105,8.0,10.0,50,0.00,,,0.00,1086,Wunderground v.1.15,2013-05-23 12:00:00,
2013-05-23 14:10:00,69.9,49.3,29.85,East,92,9.0,11.0,48,0.00,,,0.00,1069,Wunderground v.1.15,2013-05-23 12:10:00,
2013-05-23 14:15:00,70.4,50.3,29.85,SE,125,8.0,11.0,49,0.00,,,0.00,926,Wunderground v.1.15,2013-05-23 12:15:00,
2013-05-23 14:25:00,70.0,50.0,29.85,South,171,8.0,10.0,49,0.00,,,0.00,1211,Wunderground v.1.15,2013-05-23 12:25:00,
2013-05-23 14:35:00,69.9,49.3,29.85,ESE,103,9.0,10.0,48,0.00,,,0.00,1144,Wunderground v.1.15,2013-05-23 12:35:00,
2013-05-23 14:45:00,70.4,49.2,29.85,SE,124,9.0,12.0,47,0.00,,,0.00,664,Wunderground v.1.15,2013-05-23 12:45:00,
2013-05-23 14:55:00,69.3,48.2,29.85,ESE,104,12.0,12.0,47,0.00,,,0.00,485,Wunderground v.1.15,2013-05-23 12:55:00,
2013-05-23 15:00:00,68.9,47.8,29.85,ESE,105,13.0,13.0,47,0.00,,,0.00,1095,Wunderground v.1.15,2013-05-23 13:00:00,
2013-05-23 15:10:00,68.3,48.9,29.85,East,101,13.0,16.0,50,0.00,,,0.00,687,Wunderground v.1.15,2013-05-23 13:10:00,
2013-05-23 15:20:00,68.2,49.9,29.85,ESE,112,12.0,18.0,52,0.00,,,0.00,1071,Wunderground v.1.15,2013-05-23 13:20:00,
2013-05-23 15:25:00,68.5,49.7,29.84,East,96,11.0,18.0,51,0.00,,,0.00,954,Wunderground v.1.15,2013-05-23 13:25:00,
2013-05-23 15:30:00,68.4,48.5,29.84,East,98,13.0,18.0,49,0.00,,,0.00,905,Wunderground v.1.15,2013-05-23 13:30:00,
2013-05-23 15:40:00,67.8,51.0,29.85,ESE,120,13.0,13.0,55,0.00,,,0.00,501,Wunderground v.1.15,2013-05-23 13:40:00,
2013-05-23 15:50:00,67.6,51.3,29.84,SE,129,13.0,15.0,56,0.00,,,0.00,418,Wunderground v.1.15,2013-05-23 13:50:00,
2013-05-23 15:55:00,67.5,53.6,29.84,SE,139,12.0,15.0,61,0.00,,,0.00,353,Wunderground v.1.15,2013-05-23 13:55:00,
2013-05-23 16:05:00,66.9,51.2,29.85,SE,129,11.0,14.0,57,0.00,,,0.00,285,Wunderground v.1.15,2013-05-23 14:05:00,
2013-05-23 16:10:00,66.7,49.5,29.85,SE,128,11.0,16.0,54,0.00,,,0.00,318,Wunderground v.1.15,2013-05-23 14:10:00,
2013-05-23 16:20:00,66.5,53.9,29.85,South,180,9.0,13.0,64,0.00,,,0.00,179,Wunderground v.1.15,2013-05-23 14:20:00,
2013-05-23 16:25:00,65.8,54.5,29.85,SSE,148,10.0,13.0,67,0.00,,,0.00,162,Wunderground v.1.15,2013-05-23 14:25:00,
2013-05-23 16:30:00,65.2,54.8,29.85,SSE,167,11.0,12.0,69,0.00,,,0.00,167,Wunderground v.1.15,2013-05-23 14:30:00,
2013-05-23 16:40:00,64.6,54.6,29.85,SSE,158,11.0,13.0,70,0.00,,,0.00,276,Wunderground v.1.15,2013-05-23 14:40:00,
2013-05-23 16:50:00,64.6,55.4,29.85,SSE,164,10.0,12.0,72,0.00,,,0.00,243,Wunderground v.1.15,2013-05-23 14:50:00,
2013-05-23 17:00:00,64.3,55.5,29.84,SSE,157,10.0,10.0,73,0.00,,,0.00,265,Wunderground v.1.15,2013-05-23 15:00:00,
2013-05-23 17:05:00,64.2,55.7,29.84,SSE,166,10.0,10.0,74,0.00,,,0.00,230,Wunderground v.1.15,2013-05-23 15:05:00,
2013-05-23 17:10:00,64.1,56.0,29.84,SSE,164,9.0,10.0,75,0.00,,,0.00,165,Wunderground v.1.15,2013-05-23 15:10:00,
2013-05-23 17:20:00,63.8,55.7,29.84,SE,136,9.0,10.0,75,0.00,,,0.00,121,Wunderground v.1.15,2013-05-23 15:20:00,
2013-05-23 17:25:00,63.5,55.8,29.84,SSE,150,10.0,11.0,76,0.00,,,0.00,81,Wunderground v.1.15,2013-05-23 15:25:00,
2013-05-23 17:35:00,63.0,55.7,29.85,SSE,155,10.0,10.0,77,0.00,,,0.00,60,Wunderground v.1.15,2013-05-23 15:35:00,
2013-05-23 17:45:00,63.1,55.8,29.85,SSE,155,6.0,12.0,77,0.00,,,0.00,49,Wunderground v.1.15,2013-05-23 15:45:00,
2013-05-23 17:55:00,63.0,55.7,29.85,SSE,157,7.0,8.0,77,0.00,,,0.00,33,Wunderground v.1.15,2013-05-23 15:55:00,
2013-05-23 18:00:00,63.0,55.7,29.85,SE,146,7.0,8.0,77,0.00,,,0.00,30,Wunderground v.1.15,2013-05-23 16:00:00,
2013-05-23 18:10:00,62.8,55.1,29.85,SSE,168,8.0,8.0,76,0.00,,,0.00,28,Wunderground v.1.15,2013-05-23 16:10:00,
2013-05-23 18:20:00,62.9,54.5,29.85,South,170,8.0,8.0,74,0.00,,,0.00,26,Wunderground v.1.15,2013-05-23 16:20:00,
2013-05-23 18:25:00,62.9,54.5,29.85,SSE,164,6.0,8.0,74,0.00,,,0.00,33,Wunderground v.1.15,2013-05-23 16:25:00,
2013-05-23 18:35:00,62.9,54.1,29.85,SSE,150,6.0,12.0,73,0.00,,,0.00,23,Wunderground v.1.15,2013-05-23 16:35:00,
2013-05-23 18:40:00,62.8,54.4,29.85,SSE,153,7.0,8.0,74,0.00,,,0.00,30,Wunderground v.1.15,2013-05-23 16:40:00,
2013-05-23 18:50:00,62.7,53.9,29.85,SSE,161,5.0,5.0,73,0.00,,,0.00,46,Wunderground v.1.15,2013-05-23 16:50:00,
2013-05-23 19:00:00,62.7,53.2,29.85,SSE,161,4.0,4.0,71,0.00,,,0.00,19,Wunderground v.1.15,2013-05-23 17:00:00,
2013-05-23 19:05:00,62.8,52.9,29.85,SSE,159,3.0,4.0,70,0.00,,,0.00,19,Wunderground v.1.15,2013-05-23 17:05:00,
2013-05-23 19:15:00,63.0,53.4,29.86,SSE,148,3.0,3.0,71,0.00,,,0.00,12,Wunderground v.1.15,2013-05-23 17:15:00,
2013-05-23 19:20:00,63.0,52.7,29.85,SE,135,3.0,4.0,69,0.00,,,0.00,12,Wunderground v.1.15,2013-05-23 17:20:00,
2013-05-23 19:25:00,63.0,52.3,29.86,East,96,4.0,4.0,68,0.00,,,0.00,12,Wunderground v.1.15,2013-05-23 17:25:00,
2013-05-23 19:30:00,62.9,52.2,29.86,East,84,5.0,6.0,68,0.00,,,0.00,12,Wunderground v.1.15,2013-05-23 17:30:00,
2013-05-23 19:40:00,62.4,50.5,29.86,ENE,76,5.0,7.0,65,0.00,,,0.00,12,Wunderground v.1.15,2013-05-23 17:40:00,
2013-05-23 19:45:00,62.0,49.7,29.87,ENE,71,5.0,7.0,64,0.00,,,0.00,12,Wunderground v.1.15,2013-05-23 17:45:00,
2013-05-23 19:50:00,61.6,49.3,29.86,ENE,68,5.0,5.0,64,0.00,,,0.00,14,Wunderground v.1.15,2013-05-23 17:50:00,
2013-05-23 20:00:00,61.5,49.2,29.87,ENE,63,3.0,4.0,64,0.00,,,0.00,9,Wunderground v.1.15,2013-05-23 18:00:00,
2013-05-23 20:05:00,61.4,49.1,29.87,ENE,63,4.0,4.0,64,0.00,,,0.00,5,Wunderground v.1.15,2013-05-23 18:05:00,
2013-05-23 20:10:00,61.4,49.5,29.88,ENE,63,4.0,4.0,65,0.00,,,0.00,0,Wunderground v.1.15,2013-05-23 18:10:00,
2013-05-23 20:16:00,61.4,49.1,29.87,ENE,63,3.0,4.0,64,0.00,,,0.00,5,Wunderground v.1.15,2013-05-23 18:16:00,
2013-05-23 20:26:00,61.3,49.0,29.88,ENE,67,4.0,5.0,64,0.00,,,0.00,0,Wunderground v.1.15,2013-05-23 18:26:00,
2013-05-23 20:31:00,61.2,49.3,29.88,ENE,62,5.0,8.0,65,0.00,,,0.00,0,Wunderground v.1.15,2013-05-23 18:31:00,
2013-05-23 20:41:00,60.7,49.7,29.88,NE,38,6.0,6.0,67,0.00,,,0.00,0,Wunderground v.1.15,2013-05-23 18:41:00,
2013-05-23 20:50:00,59.9,50.8,29.88,NE,44,6.0,6.0,72,0.26,,,0.02,0,Wunderground v.1.15,2013-05-23 18:50:00,
2013-05-23 20:56:00,59.2,51.3,29.89,NE,44,4.0,6.0,75,0.18,,,0.03,0,Wunderground v.1.15,2013-05-23 18:56:00,
2013-05-23 21:01:00,58.6,51.1,29.89,NE,44,4.0,4.0,76,0.07,,,0.03,0,Wunderground v.1.15,2013-05-23 19:01:00,
2013-05-23 21:10:00,58.2,51.7,29.89,NE,44,3.0,3.0,79,0.04,,,0.04,0,Wunderground v.1.15,2013-05-23 19:10:00,
2013-05-23 21:15:00,58.0,51.9,29.89,NE,44,2.0,3.0,80,0.08,,,0.04,0,Wunderground v.1.15,2013-05-23 19:15:00,
2013-05-23 21:26:00,57.8,51.7,29.89,NE,45,4.0,4.0,80,0.06,,,0.05,0,Wunderground v.1.15,2013-05-23 19:26:00,
2013-05-23 21:36:00,57.8,51.3,29.89,NE,43,4.0,4.0,79,0.00,,,0.05,0,Wunderground v.1.15,2013-05-23 19:36:00,
2013-05-23 21:45:00,57.7,50.2,29.90,NNE,30,6.0,8.0,76,0.00,,,0.05,0,Wunderground v.1.15,2013-05-23 19:45:00,
2013-05-23 21:51:00,57.6,50.1,29.90,NNE,32,6.0,6.0,76,0.00,,,0.05,0,Wunderground v.1.15,2013-05-23 19:51:00,
2013-05-23 22:00:00,57.6,49.7,29.90,NNE,27,7.0,7.0,75,0.00,,,0.05,0,Wunderground v.1.15,2013-05-23 20:00:00,
2013-05-23 22:05:00,57.5,49.6,29.90,NNE,26,6.0,7.0,75,0.00,,,0.05,0,Wunderground v.1.15,2013-05-23 20:05:00,
2013-05-23 22:11:00,57.5,49.6,29.90,NNE,28,4.0,5.0,75,0.00,,,0.05,0,Wunderground v.1.15,2013-05-23 20:11:00,
2013-05-23 22:21:00,57.6,49.0,29.90,NNE,28,3.0,3.0,73,0.00,,,0.05,0,Wunderground v.1.15,2013-05-23 20:21:00,
2013-05-23 22:26:00,57.6,49.0,29.90,NNE,29,2.0,3.0,73,0.00,,,0.05,0,Wunderground v.1.15,2013-05-23 20:26:00,
2013-05-23 22:35:00,57.8,49.6,29.90,NNE,29,0.0,1.0,74,0.00,,,0.05,0,Wunderground v.1.15,2013-05-23 20:35:00,
2013-05-23 22:41:00,58.0,50.5,29.90,NNE,29,1.0,1.0,76,0.00,,,0.05,0,Wunderground v.1.15,2013-05-23 20:41:00,
2013-05-23 22:50:00,57.7,49.5,29.90,NNE,29,0.0,0.0,74,0.00,,,0.05,0,Wunderground v.1.15,2013-05-23 20:50:00,
2013-05-23 22:55:00,57.8,48.8,29.90,NNE,28,0.0,2.0,72,0.00,,,0.05,0,Wunderground v.1.15,2013-05-23 20:55:00,
2013-05-23 23:05:00,58.0,47.9,29.90,NNE,28,0.0,2.0,69,0.00,,,0.05,0,Wunderground v.1.15,2013-05-23 21:05:00,
2013-05-23 23:15:00,57.8,46.9,29.90,North,5,2.0,12.0,67,0.00,,,0.05,0,Wunderground v.1.15,2013-05-23 21:15:00,
2013-05-23 23:21:00,57.7,45.6,29.90,North,360,5.0,5.0,64,0.00,,,0.05,0,Wunderground v.1.15,2013-05-23 21:21:00,
2013-05-23 23:30:00,57.3,45.2,29.90,North,360,2.0,6.0,64,0.00,,,0.05,0,Wunderground v.1.15,2013-05-23 21:30:00,
2013-05-23 23:40:00,57.3,44.0,29.90,North,349,7.0,13.0,61,0.00,,,0.05,0,Wunderground v.1.15,2013-05-23 21:40:00,
2013-05-23 23:45:00,57.2,43.9,29.90,NNW,333,6.0,13.0,61,0.00,,,0.05,0,Wunderground v.1.15,2013-05-23 21:45:00,
2013-05-23 23:55:00,57.4,42.7,29.90,NNW,331,7.0,10.0,58,0.00,,,0.05,0,Wunderground v.1.15,2013-05-23 21:55:00,